Location: Clermont
(50.2608°N, 4.3172°E)
Time: 07:22:32
(UTC+00:00)

Cosmos 468 Rocket - Pass Details

Date: 13 August 2020
Orbit: 744 x 779 km, 74.0° (Epoch: 26 September)

Event Time Altitude Azimuth Distance (km) Brightness Sun altitude
Rises 20:03:23 0° 338° (NNW) 3,276 8.4 -9.0°
Reaches altitude 10° 20:05:51 10° 343° (NNW) 2,342 7.4 -9.3°
Maximum altitude 20:11:04 54° 60° (ENE) 938 4.3 -10.0°
Enters shadow 20:15:34 14° 136° (SE) 2,073 5.6 -10.5°
